Theta_e
331 333 332 331 331 333 334 333 333 332 331 331 331 329 326 325 324 325 326 325 326 325 325 327 328 328 328 327 326 327 326 326 329 331 331 333 332 325 323 327 331 332 336 339 341 342 340 338 337 337 336 335 333 331 331 330 330 330 330 329 329 329 328 327 327 327 327 327 326 327 327 327 327 327 326 325 325 325 324 325 325 324 323 323 322
331 332 331 330 332 334 333 333 331 334 333 330 330 329 326 326 326 326 324 324 323 323 324 324 326 328 328 327 327 328 326 325 326 329 329 329 330 327 320 324 328 331 333 337 339 339 338 337 337 336 335 334 333 332 331 331 330 329 329 328 328 328 327 326 326 326 326 327 326 326 326 326 326 327 327 326 325 324 324 325 323 322 322 322 322
330 331 332 331 331 333 332 333 332 331 329 327 330 328 327 326 326 325 323 323 322 322 323 322 323 324 325 326 326 327 326 326 325 325 326 327 329 328 324 320 325 327 329 333 336 337 337 337 336 335 335 334 332 332 331 330 330 329 329 329 328 326 326 326 327 326 326 325 326 326 326 326 326 326 326 325 324 324 324 323 322 322 321 322 322
331 332 331 329 331 331 332 332 331 331 330 329 329 327 327 326 325 325 322 321 321 322 323 322 321 323 323 323 324 325 326 326 324 324 324 325 327 328 329 326 320 323 326 330 335 335 335 334 334 334 335 334 334 332 330 329 329 328 328 327 327 327 326 325 325 326 325 325 325 325 325 325 325 324 323 323 323 323 322 321 321 321 322 322 322
330 330 329 330 329 330 329 330 331 330 330 331 329 327 326 326 324 324 321 320 319 321 322 322 321 322 323 323 323 323 324 324 324 323 323 324 326 327 328 327 325 318 320 324 331 332 333 333 333 332 333 333 333 332 331 329 328 329 328 326 326 326 327 327 325 325 324 325 324 323 323 323 323 322 322 322 322 322 321 321 321 321 322 322 321
327 329 330 328 329 330 330 329 330 330 330 330 329 327 326 325 323 322 317 318 318 320 321 320 321 321 322 322 323 323 322 323 322 322 322 322 324 325 325 325 325 324 324 318 323 327 330 332 331 331 331 331 331 331 329 329 328 327 327 326 327 327 326 325 324 325 324 323 323 323 322 322 322 322 322 321 320 320 321 321 321 321 321 322 322
328 329 329 326 326 327 327 329 329 329 328 328 328 326 325 323 322 321 319 320 320 319 320 320 320 320 321 320 321 322 322 321 321 320 321 322 322 322 323 322 323 324 324 326 315 320 326 330 330 330 330 330 330 330 329 327 329 327 326 326 325 325 325 325 325 324 323 323 322 322 321 321 321 321 320 320 320 321 321 321 322 321 321 321 321
326 325 327 327 328 327 329 329 329 327 328 327 326 325 323 323 322 321 319 320 320 320 320 319 320 320 320 319 320 320 319 318 318 319 320 321 320 320 321 322 323 323 319 324 324 320 321 325 328 329 329 329 328 328 328 328 325 326 326 326 326 325 325 325 324 324 323 322 321 321 321 321 321 320 320 321 321 321 322 321 321 321 321 321 320
327 326 325 327 327 326 328 328 327 326 326 325 325 324 324 322 320 320 321 319 320 319 319 319 319 319 318 318 319 318 317 317 317 317 318 320 321 320 320 320 319 315 322 322 323 322 319 322 325 325 324 326 327 327 327 327 325 326 326 326 326 325 323 323 323 322 322 322 321 321 321 321 321 321 321 322 322 321 322 322 322 322 321 321 321
326 326 325 325 324 327 327 327 326 325 325 324 322 324 324 323 319 319 321 320 319 318 318 319 319 318 318 318 318 318 316 315 314 313 317 318 321 321 320 319 320 321 322 322 321 321 321 319 319 318 316 322 327 326 326 325 325 325 324 324 323 324 323 323 323 322 322 321 321 321 321 320 321 321 321 321 321 321 321 321 321 321 321 321 321
327 326 323 323 325 325 326 326 324 324 324 323 322 321 322 323 321 320 321 321 320 319 318 319 318 318 317 317 318 318 317 315 313 314 316 316 319 320 320 320 321 320 320 321 320 320 319 319 319 319 319 319 325 325 325 324 324 324 324 325 325 324 325 323 322 322 321 321 321 321 321 321 321 321 321 321 320 320 320 320 320 320 320 320 321
326 326 324 324 324 324 324 323 322 323 323 321 320 321 321 321 321 321 320 319 319 319 319 318 318 317 315 315 314 315 314 312 313 314 314 315 315 317 320 320 320 319 319 321 320 319 319 319 318 319 319 318 320 322 325 324 324 325 325 326 326 325 324 323 323 322 322 322 322 322 322 321 321 320 320 320 320 320 320 320 320 320 320 321 321
325 327 325 321 323 324 324 322 322 322 321 320 320 321 321 321 320 318 318 317 316 317 318 318 314 310 310 309 309 310 310 311 311 311 312 313 314 316 318 319 319 318 317 318 319 318 318 318 318 318 318 318 317 316 320 320 320 326 327 327 327 326 326 325 325 324 323 323 323 323 323 322 322 321 321 320 320 320 320 320 320 321 321 322 322
323 326 324 325 324 323 323 321 321 321 320 320 320 318 320 319 319 316 318 316 314 316 316 315 310 307 304 303 304 306 306 308 308 308 310 311 312 313 317 318 318 317 316 318 319 319 319 319 319 319 319 318 319 319 319 318 320 325 326 327 327 326 326 326 326 326 324 324 324 324 323 323 323 322 322 321 321 321 321 321 321 322 323 322 323
323 323 324 323 323 323 321 321 321 320 319 319 320 319 319 318 318 316 314 315 314 315 315 315 309 309 308 305 300 301 303 304 305 305 308 308 309 312 315 317 317 317 316 317 318 319 319 320 320 320 319 319 320 320 320 315 318 315 323 326 326 326 327 327 326 326 325 324 324 324 324 323 323 323 323 323 322 322 322 322 323 323 324 324 324
323 325 322 323 323 322 322 321 321 319 319 318 319 319 318 317 316 315 315 312 311 311 314 315 312 309 303 305 303 304 297 299 301 300 303 306 310 311 311 315 315 315 315 316 316 316 318 319 319 319 320 320 320 319 319 318 309 309 312 317 320 326 327 327 327 327 326 325 325 325 324 324 324 324 324 324 324 324 324 324 324 325 324 324 324
321 323 321 321 322 322 322 320 319 320 319 319 318 317 317 317 316 314 314 313 310 311 312 314 313 313 310 305 301 300 301 302 300 299 302 303 304 308 307 311 312 312 314 314 314 315 316 316 318 318 319 318 318 317 315 315 317 314 314 309 316 321 324 327 327 327 327 327 326 325 325 325 325 326 326 326 326 325 325 325 325 325 325 325 325
318 321 322 319 320 321 321 320 319 319 319 319 318 317 317 316 316 315 314 314 312 310 309 311 313 313 313 312 309 303 302 300 303 294 297 298 299 302 303 305 309 311 313 312 312 313 313 315 316 316 317 316 316 315 315 315 309 315 316 316 313 317 321 325 327 327 327 327 327 326 326 326 326 326 326 326 326 326 325 325 325 325 325 325 325
315 318 321 320 320 321 321 320 319 320 317 319 317 316 317 317 316 316 315 313 312 309 309 309 310 313 313 308 306 308 307 303 302 296 293 296 298 299 300 301 302 307 308 310 311 311 312 313 313 314 315 314 314 314 314 313 309 309 306 305 311 313 316 318 323 326 327 328 328 328 327 327 326 327 327 327 326 326 326 325 325 325 325 325 324
311 313 318 319 319 320 319 318 318 319 316 318 317 316 317 317 316 316 316 314 313 312 310 310 309 310 310 304 308 309 308 308 306 300 299 294 293 296 299 299 301 302 306 307 309 310 310 311 312 312 313 313 313 312 312 311 310 308 304 305 310 313 315 314 314 315 322 325 327 326 327 326 327 327 327 326 326 326 326 325 324 323 323 323 324
307 307 310 318 318 318 318 317 317 318 314 318 317 317 316 316 315 315 315 314 314 314 312 310 310 310 306 302 308 307 307 304 300 298 296 294 291 295 294 297 299 300 299 299 300 305 309 309 310 311 311 311 311 311 310 309 308 307 304 304 308 311 313 314 313 313 313 314 322 326 327 327 326 325 325 323 324 324 323 323 322 322 322 322 322
304 305 306 312 318 317 318 318 317 317 313 317 317 316 316 316 315 315 315 313 313 312 311 311 311 312 308 304 305 305 305 302 301 300 297 298 294 295 296 296 297 294 296 298 299 300 302 305 307 308 308 309 309 309 309 308 307 307 304 303 307 309 311 314 314 314 313 313 314 318 325 324 323 322 322 323 324 323 322 322 321 322 322 322 321
302 303 305 307 315 316 317 318 317 314 312 316 316 316 316 315 315 315 314 313 312 311 310 310 310 310 307 304 306 306 305 304 303 302 300 294 295 295 298 300 300 296 294 297 297 298 299 302 304 304 306 307 307 306 306 306 302 304 301 303 306 308 311 313 313 313 313 314 315 316 319 323 324 323 322 323 323 322 321 320 320 322 321 321 320
300 301 302 304 308 315 315 317 316 316 314 316 317 316 316 316 315 315 313 313 313 311 311 309 309 308 307 305 305 307 307 306 306 305 302 299 299 297 297 299 299 297 293 295 295 295 297 299 299 300 302 303 304 304 304 303 303 299 299 301 306 307 311 312 312 312 313 313 313 314 319 321 321 322 323 322 322 322 320 320 320 321 320 320 320
298 298 300 302 302 308 315 315 315 315 314 316 317 316 316 316 315 314 314 312 311 311 310 309 309 307 307 306 306 305 306 308 308 306 305 303 301 296 296 301 296 293 294 295 290 294 297 297 296 297 296 299 302 302 301 302 300 298 298 298 304 306 309 312 312 313 313 312 312 314 318 319 319 321 323 322 321 320 320 320 320 320 320 320 320
297 297 300 301 301 303 311 315 316 315 313 315 316 316 316 315 315 314 313 312 312 311 310 310 310 309 307 305 305 304 304 306 307 306 304 301 298 298 297 297 298 294 294 295 294 294 294 295 295 295 293 295 298 298 298 300 299 296 298 300 303 305 308 311 313 313 312 312 312 312 312 314 318 319 320 321 320 320 320 320 320 320 320 319 319
297 298 299 300 300 302 304 311 315 315 314 314 314 315 315 315 314 314 313 313 312 311 310 310 309 308 306 306 305 303 305 305 307 307 307 305 302 301 299 294 291 293 293 296 295 298 296 292 294 294 292 293 295 294 297 295 297 296 296 303 304 302 306 310 313 313 312 312 312 312 312 313 315 318 318 318 320 320 320 320 320 320 319 319 318
297 297 298 299 299 300 302 306 312 315 314 314 314 314 314 314 314 313 313 313 311 310 310 310 309 308 307 306 305 304 305 305 307 307 308 308 306 304 302 298 294 290 292 292 293 296 297 292 293 294 291 291 293 293 295 296 296 295 294 301 302 303 305 309 311 312 312 312 311 311 311 312 313 314 314 314 315 314 315 316 317 317 316 315 314
296 297 296 297 298 299 300 304 310 314 313 312 314 314 313 313 313 313 313 313 311 310 310 309 309 309 307 306 305 305 304 305 306 306 307 307 307 306 305 301 299 294 291 291 293 295 295 296 291 292 294 293 292 294 294 296 296 294 299 301 302 304 304 308 310 311 311 311 311 311 310 309 310 310 310 311 312 313 314 313 313 312 311 311 311
296 295 295 295 296 296 299 302 306 311 312 312 312 313 312 312 312 313 313 313 311 310 310 309 309 308 306 305 304 303 304 303 305 305 305 305 305 306 306 305 304 299 296 294 294 298 295 295 295 290 293 292 294 295 295 297 295 297 300 301 303 304 303 304 308 309 309 310 310 309 308 308 308 308 308 309 311 311 312 311 310 310 310 309 310
294 294 293 294 294 295 297 300 304 309 312 311 312 312 312 312 312 312 313 312 311 310 309 309 308 307 305 304 303 303 301 302 303 303 303 304 304 304 304 305 304 303 300 298 294 297 297 294 294 292 292 292 294 296 297 298 296 299 299 301 302 300 300 302 304 306 307 308 308 308 307 307 307 307 307 307 309 309 310 310 309 309 309 309 309
294 294 293 293 293 294 296 298 301 306 310 311 311 311 311 311 311 312 312 312 311 310 309 308 308 306 305 303 302 302 299 300 301 302 302 303 303 302 303 303 303 303 302 299 296 295 296 297 293 292 292 292 294 295 296 296 297 296 298 299 299 297 301 301 302 303 305 306 307 307 306 306 306 307 307 307 308 308 308 308 308 308 308 308 308
295 293 292 292 293 293 294 295 298 303 308 310 310 310 309 310 310 311 311 311 310 310 308 306 306 304 304 303 302 302 300 299 300 301 301 301 301 302 302 303 302 302 301 297 296 291 292 293 293 292 293 293 292 294 293 294 294 294 296 298 298 297 299 299 299 299 302 304 305 306 306 306 306 306 306 306 306 307 307 307 308 308 308 308 308
295 294 293 293 293 293 293 294 296 301 306 310 309 309 308 309 309 310 310 309 309 309 307 305 305 305 304 304 303 302 300 300 300 300 301 300 299 300 300 301 301 301 301 297 296 291 288 289 290 292 292 294 291 293 293 293 293 292 294 294 294 293 295 295 295 297 301 302 304 305 305 305 305 305 305 305 305 306 306 306 306 306 306 306 305
295 294 293 293 292 292 292 293 295 297 303 308 309 309 308 308 308 308 309 308 308 307 306 306 305 305 304 303 303 302 301 299 299 300 301 300 299 299 299 300 300 300 300 300 296 290 288 288 290 290 290 291 291 292 293 293 293 293 292 292 292 293 293 293 294 295 300 302 304 304 304 304 304 304 304 304 303 304 304 304 304 304 304 304 303
295 295 294 293 292 292 292 292 293 296 299 306 308 308 308 308 308 308 308 308 308 307 307 306 306 305 304 304 303 303 301 299 299 299 300 300 299 298 298 299 299 299 299 298 297 291 289 288 288 289 290 290 290 292 293 292 292 292 292 291 291 291 291 292 293 293 299 302 302 302 303 303 303 303 303 303 302 302 302 302 302 302 302 302 302
295 294 293 293 292 291 291 291 292 294 297 302 307 307 308 308 308 308 308 308 308 307 307 307 304 305 305 304 304 304 302 300 299 299 299 299 299 298 297 297 297 298 298 298 295 293 290 288 288 289 290 290 291 292 292 291 291 290 289 290 290 291 291 291 291 293 297 300 300 300 301 302 302 302 302 301 301 301 300 300 300 300 300 300 300
294 294 293 292 291 290 290 290 291 292 296 299 305 307 307 307 308 308 308 307 307 307 307 307 307 307 306 305 305 304 303 301 300 300 299 298 298 297 297 296 296 296 296 296 294 291 290 289 288 288 289 289 289 290 291 292 290 289 288 288 288 289 290 291 291 292 293 294 294 297 298 299 299 301 301 300 300 299 299 299 299 299 298 298 299
292 292 291 290 289 289 289 290 290 291 294 297 303 306 306 307 307 307 306 306 307 307 307 307 307 307 307 306 306 305 304 303 302 300 299 298 297 297 296 296 296 295 293 293 291 290 289 288 288 289 288 289 289 288 290 291 291 290 288 288 287 288 289 290 290 290 292 293 295 297 296 295 296 296 298 298 299 298 298 298 298 298 296 297 298
291 291 290 290 289 289 289 289 290 291 292 295 300 306 306 306 306 306 306 305 306 307 306 307 307 307 307 306 306 306 305 304 303 302 300 298 297 295 296 297 296 293 292 292 290 290 289 288 288 288 288 288 288 289 290 289 288 287 289 289 287 287 288 289 290 290 291 292 291 291 294 295 295 296 297 298 298 298 297 296 296 295 295 297 297
288 290 291 290 289 288 288 289 289 290 291 294 298 304 305 306 306 305 305 304 305 305 305 305 306 307 307 306 306 306 303 299 298 299 299 298 297 294 295 294 293 292 292 291 290 290 289 289 288 288 288 287 287 287 287 287 287 288 288 288 288 288 288 288 289 291 291 290 290 290 290 290 289 289 290 290 291 295 293 293 293 293 294 297 297
284 286 289 289 289 288 288 288 288 290 291 294 295 299 302 304 305 305 305 304 304 304 303 303 304 305 305 306 305 299 296 295 295 296 297 297 296 297 296 294 293 292 292 291 290 290 290 288 288 288 287 287 287 287 287 288 289 289 288 288 287 287 287 287 286 287 289 289 288 287 288 289 289 288 289 289 290 290 289 289 288 291 294 297 297
281 282 285 287 288 288 288 288 288 289 291 293 295 299 301 301 305 305 303 303 303 303 302 303 302 302 304 304 305 299 296 294 296 295 297 296 296 296 295 295 294 293 292 291 291 290 290 289 289 288 288 287 287 288 288 289 289 288 288 288 287 287 286 285 284 286 288 289 287 287 287 288 288 287 287 288 289 289 288 288 292 293 295 296 296
280 282 284 286 287 288 288 288 289 289 290 292 295 298 300 301 301 304 304 303 302 303 303 302 303 302 302 302 303 303 301 299 300 298 296 295 295 295 295 294 294 294 294 293 291 290 290 289 289 288 288 288 288 288 288 288 288 288 288 288 287 287 286 286 285 284 288 289 287 286 286 287 287 287 286 287 289 288 289 291 293 294 295 296 296
280 282 283 285 286 288 288 288 288 289 290 292 294 297 299 300 301 303 303 303 301 301 302 302 302 301 301 300 301 303 302 295 296 300 299 296 294 294 294 293 293 294 295 295 294 292 292 291 289 289 289 289 288 288 289 289 289 288 288 287 287 287 287 287 287 286 287 289 288 286 285 286 287 286 285 286 288 288 289 293 294 294 295 296 296
279 281 282 284 286 287 288 288 288 289 290 291 294 297 298 299 300 302 303 303 302 302 302 302 301 300 300 300 300 300 301 298 299 300 299 297 293 292 292 292 292 292 293 294 293 293 292 292 290 289 290 291 289 290 290 290 288 288 288 287 288 287 287 287 288 287 288 289 287 286 284 284 286 286 285 285 287 287 287 292 294 294 295 295 296
280 281 282 284 285 286 287 288 288 289 290 292 294 297 298 299 300 301 304 303 300 301 302 301 301 300 300 301 300 300 300 298 298 298 298 294 292 291 291 290 291 292 293 294 294 294 293 292 291 291 292 293 292 292 290 290 289 290 290 289 288 288 287 287 286 286 287 289 288 287 282 284 285 285 285 285 286 286 286 293 294 294 295 295 295
281 283 284 285 286 286 287 288 288 288 290 292 294 297 298 299 300 300 302 300 299 299 299 299 301 301 300 299 299 299 299 298 295 296 296 294 292 290 290 290 290 291 293 294 294 295 294 294 294 293 293 294 294 291 290 290 290 289 289 288 287 287 286 286 284 285 286 288 288 287 284 283 285 285 285 285 285 285 285 287 294 294 294 295 295
281 283 284 285 286 287 287 288 288 289 289 291 294 297 297 299 299 300 299 299 298 297 297 298 299 299 298 299 299 298 298 297 295 296 296 294 291 291 290 290 289 290 291 293 294 294 294 295 295 295 295 296 296 295 294 294 291 290 289 288 286 287 286 284 283 284 285 287 287 287 285 283 284 285 284 284 285 284 285 286 288 293 294 295 295
282 285 286 286 287 288 288 288 288 288 289 292 294 296 297 298 298 298 298 298 297 297 296 296 298 298 297 294 295 297 297 297 295 296 296 293 291 291 290 289 289 289 290 291 292 293 293 294 294 294 295 295 295 295 294 294 293 291 289 287 287 287 286 286 283 284 285 286 287 287 285 283 284 285 284 283 284 282 284 285 286 289 293 294 295
282 286 287 287 288 288 288 289 289 289 290 292 295 296 297 297 296 297 299 298 296 296 296 295 296 296 295 293 293 296 297 296 295 296 296 293 291 291 291 290 289 289 290 290 290 290 290 290 290 291 290 292 292 292 291 293 292 291 290 289 289 287 286 286 285 284 282 283 286 287 285 283 283 285 284 281 278 281 284 284 285 286 288 288 289
Wind_Speed
11 8 8 10 8 8 8 8 8 9 10 9 8 9 9 8 7 7 9 8 8 7 5 6 6 5 5 7 7 7 7 6 4 4 5 3 4 5 8 6 6 3 13 26 25 24 25 27 27 26 26 25 23 22 21 19 20 21 20 20 20 21 20 19 18 18 18 18 19 18 18 18 18 17 18 17 17 17 16 16 16 16 16 15 15
10 9 9 11 9 9 8 8 9 9 10 9 8 8 9 8 9 7 7 12 9 7 8 6 7 6 5 5 6 6 8 7 4 3 4 4 5 6 9 7 6 5 4 21 24 28 28 27 27 26 24 24 23 23 24 22 21 21 20 20 21 21 20 19 19 19 18 19 18 18 18 18 18 17 17 17 17 17 16 16 16 15 15 14 15
9 11 9 10 9 9 8 8 8 9 9 6 8 8 8 9 10 7 7 7 11 8 5 6 6 6 6 7 7 6 6 7 5 4 5 4 5 5 7 10 8 4 5 8 20 25 27 26 27 27 25 24 24 24 23 23 22 21 20 20 21 20 20 20 20 19 19 19 19 18 18 18 17 18 17 17 16 16 16 16 14 15 15 16 15
12 11 12 9 7 7 9 9 9 8 9 11 10 11 9 9 9 10 9 7 8 11 7 6 7 7 7 6 5 5 6 7 8 5 5 5 6 6 5 7 10 6 3 3 12 12 21 27 25 26 25 25 25 26 25 23 22 22 21 21 21 21 20 20 20 19 19 19 18 18 19 18 18 17 15 15 15 15 15 15 15 15 15 15 14
10 11 11 12 11 11 9 10 10 10 9 10 12 10 11 8 10 11 9 7 7 7 8 6 6 7 7 7 5 5 5 7 6 6 4 6 7 7 7 7 6 9 7 7 12 10 15 22 25 25 25 24 24 24 24 24 23 22 22 22 21 22 21 21 20 20 20 19 18 17 16 16 16 16 15 15 15 15 15 15 14 15 14 14 14
13 12 10 10 11 10 9 11 8 9 8 8 8 9 10 8 7 9 11 10 9 8 9 9 7 6 6 7 7 6 4 5 6 6 5 4 7 8 7 7 6 5 5 7 11 15 14 19 21 23 23 23 23 23 22 23 23 23 22 22 22 21 21 22 22 21 21 20 19 18 18 17 16 16 16 15 15 15 15 14 15 15 15 14 13
11 11 9 5 8 6 10 9 8 9 9 9 8 9 11 10 8 9 9 9 10 9 10 10 10 9 8 7 7 6 5 5 5 6 5 5 4 7 8 7 6 6 4 4 7 13 15 16 20 21 21 22 23 22 21 21 23 23 23 22 22 22 22 22 21 21 21 20 19 18 18 18 17 16 16 16 16 15 15 15 15 15 13 13 14
12 10 12 10 8 11 10 9 12 10 9 10 10 10 12 11 10 11 13 11 11 11 9 10 10 10 8 7 7 8 6 5 6 4 4 5 5 6 7 8 8 7 5 6 6 10 16 16 16 17 20 20 21 21 21 21 20 20 21 21 21 21 21 21 21 20 20 19 19 18 18 18 17 16 16 16 16 16 15 13 13 13 13 12 12
12 13 14 12 10 11 11 10 11 9 10 10 10 10 11 12 12 11 12 13 13 12 10 10 9 10 8 8 7 8 8 6 6 4 3 4 5 5 6 6 6 7 5 6 6 7 11 15 17 18 17 18 20 20 20 19 21 21 21 21 20 20 20 21 21 21 20 19 18 18 18 17 17 17 17 16 15 15 14 14 13 12 11 11 10
13 14 13 11 9 12 11 11 11 11 11 10 9 9 11 12 14 13 11 10 12 14 12 10 9 9 9 9 8 8 8 6 5 5 4 4 6 7 4 6 7 7 5 6 7 7 7 11 15 15 15 15 17 21 18 19 19 19 19 19 20 21 21 21 20 20 19 18 18 17 17 17 17 17 16 15 14 13 12 12 11 11 10 10 9
15 13 10 11 10 7 7 12 8 9 11 11 12 9 11 12 15 13 13 12 12 14 14 12 10 10 10 11 9 8 7 6 5 5 6 3 4 7 7 7 6 6 5 6 7 8 8 7 8 8 11 16 12 17 18 18 19 19 20 21 21 21 20 21 20 19 19 18 18 17 17 17 17 15 14 13 13 12 11 11 11 9 9 8 8
15 9 11 12 10 12 10 11 10 9 13 11 11 11 13 14 14 13 13 11 10 11 13 12 11 11 10 7 6 6 7 7 6 7 5 5 3 4 7 7 7 6 5 7 8 7 7 7 7 7 8 14 16 12 15 17 17 20 22 22 22 22 22 20 20 19 18 18 18 18 17 17 16 15 14 13 12 11 11 10 9 9 7 5 5
14 11 12 10 10 10 11 13 13 12 14 12 14 14 12 13 14 13 15 13 10 10 11 12 12 8 7 7 6 5 5 4 7 7 7 5 4 4 6 8 8 7 4 5 9 10 8 8 7 7 7 9 12 14 15 15 16 19 23 23 22 23 22 20 20 19 18 18 17 17 17 16 16 15 14 13 12 11 10 9 9 7 6 5 5
16 10 13 12 12 10 11 12 13 12 13 13 15 14 14 13 11 11 11 13 11 12 13 13 12 13 12 7 4 5 5 4 4 4 5 6 7 5 5 9 9 8 4 5 8 9 9 8 7 7 7 9 9 9 11 12 14 19 22 23 23 22 21 21 20 19 18 18 17 17 16 16 15 14 14 13 12 11 10 9 8 7 6 4 2
17 13 11 13 13 13 12 12 15 13 12 14 14 15 14 15 16 14 11 9 9 11 15 17 15 11 11 12 7 7 1 3 3 4 3 4 5 6 7 9 12 10 7 7 8 9 8 8 8 8 8 8 8 7 7 8 10 19 18 19 21 22 22 22 20 20 19 18 17 17 16 15 15 14 13 12 11 10 10 9 8 6 5 3 3
17 14 12 13 14 13 12 13 14 14 15 14 12 13 14 14 15 14 15 13 8 11 14 15 13 17 12 11 10 10 7 5 5 1 2 3 5 7 6 9 10 10 8 9 7 7 8 9 9 9 8 8 8 6 5 5 9 9 10 17 20 20 22 21 20 20 18 18 17 17 16 15 14 14 13 12 11 10 9 9 8 6 5 3 3
16 17 14 16 15 14 14 15 14 14 14 14 15 18 16 16 16 15 16 16 14 11 13 14 14 16 16 9 6 8 12 10 10 3 2 3 1 2 6 9 10 10 9 8 7 9 9 10 9 9 9 8 8 7 6 6 6 6 6 7 10 18 20 20 20 19 18 18 17 16 16 15 14 13 13 12 11 10 9 7 6 6 7 7 7
13 16 14 14 16 16 15 14 16 15 15 15 14 12 15 17 18 17 18 12 14 14 13 9 11 13 11 13 12 12 13 11 14 6 2 4 3 2 4 5 6 8 9 10 9 8 8 10 9 8 9 8 8 8 7 6 6 6 5 6 8 5 7 18 21 19 18 18 17 17 16 14 14 12 11 11 10 10 9 8 8 7 7 6 6
14 16 17 15 15 14 14 14 16 15 14 15 16 15 14 17 15 15 16 15 14 15 17 13 7 9 6 1 5 8 14 16 13 8 6 0 2 2 3 2 3 6 9 9 11 10 8 8 9 8 8 9 8 8 7 7 8 8 9 11 11 10 9 7 10 13 15 15 15 15 14 13 12 12 13 11 11 10 10 10 10 9 10 10 10
12 15 17 15 15 14 13 10 11 15 15 14 16 14 14 15 18 20 15 14 18 17 18 15 15 14 7 4 6 11 16 11 8 14 13 14 6 3 2 4 4 3 6 8 8 11 9 9 9 8 7 8 8 8 7 7 6 6 6 10 10 11 10 9 10 8 8 10 16 13 14 13 13 13 12 12 12 12 13 13 12 11 10 10 11
11 14 18 16 12 14 14 13 12 11 12 14 14 17 21 20 19 16 16 16 17 18 16 16 14 14 10 4 8 11 12 7 11 6 7 8 4 8 9 2 4 3 3 4 4 7 8 8 8 9 8 7 7 7 7 7 6 6 7 10 10 9 8 8 7 7 5 3 3 14 17 15 15 13 12 11 12 13 13 13 11 10 9 9 10
9 12 16 18 17 15 16 16 15 14 12 15 14 17 17 18 19 19 18 16 13 15 18 17 15 13 10 9 11 11 10 7 7 10 5 8 12 10 11 11 11 2 2 3 5 6 5 6 7 6 7 7 6 6 7 7 7 6 8 12 11 10 9 8 8 7 6 5 5 3 7 13 12 12 12 12 12 13 11 11 11 10 10 10 10
7 10 13 17 18 14 14 15 15 13 14 16 15 16 17 15 17 19 19 20 16 16 14 12 12 11 12 10 13 17 17 16 15 13 12 7 8 6 10 12 13 10 2 2 3 5 5 6 6 6 6 7 6 6 6 6 7 8 14 13 12 11 11 10 10 10 8 8 7 7 5 8 14 14 14 13 13 12 12 12 11 11 12 11 10
7 8 10 13 17 14 13 14 13 14 14 14 15 17 15 15 16 18 17 17 16 16 16 16 15 11 12 9 9 10 10 11 10 11 12 12 14 11 9 6 6 4 4 3 4 3 4 5 5 5 5 6 6 6 6 6 6 12 11 12 12 11 11 11 11 10 10 10 11 9 8 7 8 9 10 13 13 12 12 12 12 13 12 12 11
7 9 9 12 13 17 14 13 12 12 13 13 14 17 16 13 15 20 18 19 16 17 15 17 17 15 15 11 8 8 10 10 11 11 9 10 13 13 6 10 10 6 3 6 2 1 1 3 5 5 5 6 4 5 6 6 5 10 11 9 13 12 12 12 11 11 11 12 12 11 10 9 10 10 10 12 14 15 14 14 13 13 13 14 13
7 8 8 10 11 14 16 13 14 12 13 14 12 15 19 16 14 15 19 17 17 19 18 18 17 15 11 11 9 8 7 9 12 12 12 13 12 16 13 5 8 9 3 4 5 6 2 1 3 4 4 4 5 4 5 5 6 11 12 9 11 13 12 11 11 11 12 12 12 13 12 12 12 13 13 15 16 16 16 15 14 14 14 14 14
7 7 8 10 11 12 14 17 13 14 13 14 14 14 14 15 16 19 17 17 17 18 17 18 17 16 14 13 11 8 8 8 11 11 12 13 14 13 13 14 4 5 7 3 3 9 9 3 5 5 5 5 5 4 5 4 8 12 11 9 7 12 12 12 12 12 13 13 13 14 14 14 15 15 16 15 15 16 18 17 17 16 16 16 15
7 7 7 8 10 11 11 15 18 15 14 16 16 14 16 17 16 17 19 15 18 20 17 19 19 19 16 12 11 10 9 10 11 11 11 11 12 13 13 14 16 7 4 6 5 7 9 7 2 4 5 6 5 5 5 7 6 13 10 6 6 8 12 12 13 13 13 14 14 15 15 16 16 15 14 14 14 14 15 14 13 12 12 14 15
6 6 7 7 9 11 11 13 17 17 15 16 17 16 16 17 16 19 21 17 18 20 16 16 17 17 13 15 13 11 10 9 10 10 10 11 12 13 14 14 14 13 9 9 10 9 8 9 7 6 6 6 7 6 6 6 8 11 6 5 7 6 11 14 14 14 14 15 15 16 15 15 14 15 15 15 15 16 15 17 17 18 18 17 16
5 6 7 7 9 11 12 13 13 14 15 15 16 17 16 14 16 18 19 19 18 15 16 16 15 15 13 12 10 10 10 10 11 11 11 11 12 13 14 13 14 16 14 14 11 10 10 9 7 6 6 6 6 5 5 6 11 12 5 6 7 6 13 14 15 15 15 15 16 16 16 16 17 17 17 17 18 17 17 17 17 18 17 17 16
5 6 6 7 8 9 11 12 12 16 15 16 17 16 17 15 15 16 18 18 18 18 17 17 15 14 15 15 12 10 9 13 12 12 11 11 12 12 13 12 11 12 14 11 11 8 9 11 7 8 11 8 6 6 4 5 11 11 5 6 6 12 15 12 15 15 15 16 16 17 17 18 18 18 18 17 17 17 17 17 16 16 17 17 17
6 6 6 6 7 9 10 11 13 13 16 15 17 17 16 16 16 15 17 20 20 19 17 16 15 15 16 16 14 12 10 11 12 11 11 11 10 11 12 12 11 10 11 11 11 10 10 11 8 8 11 10 8 9 6 6 8 8 6 6 9 13 8 7 13 15 15 16 17 17 18 18 18 18 17 17 17 16 16 16 16 16 17 17 18
5 6 6 6 7 8 10 12 13 13 17 16 14 15 15 16 16 17 19 20 21 18 18 18 16 16 16 17 16 14 12 12 11 10 10 11 10 10 11 11 11 11 11 9 10 6 3 4 9 10 11 11 8 8 10 8 7 5 7 8 9 7 7 7 7 13 15 16 16 17 17 18 18 18 17 16 16 16 16 16 16 16 17 19 19
6 6 6 6 6 7 9 12 13 13 14 17 17 15 16 17 17 16 16 20 21 20 19 19 18 16 16 18 16 14 14 15 13 13 12 11 10 11 11 11 11 11 10 9 8 9 8 5 7 7 9 10 9 7 12 11 7 6 8 7 5 6 6 6 6 7 15 15 16 16 16 17 17 17 17 16 16 16 16 17 15 16 16 18 18
7 6 6 6 6 6 9 11 12 12 13 15 15 18 18 19 19 17 17 19 20 20 20 20 21 19 18 18 18 17 14 14 15 15 13 13 11 13 13 11 12 11 11 11 8 8 11 8 8 10 10 9 9 11 8 8 8 9 9 7 6 6 5 6 6 6 13 16 17 16 17 16 16 17 17 17 16 16 16 16 16 15 16 16 17
7 5 5 5 6 7 8 11 12 11 12 14 15 17 20 20 19 19 19 19 19 20 21 20 19 19 21 20 18 19 17 17 16 15 15 14 14 13 13 11 12 12 11 10 9 8 8 11 8 10 9 11 6 8 8 8 10 8 7 6 6 7 6 6 7 7 11 16 16 16 16 16 16 16 17 17 17 17 17 17 16 15 15 15 15
8 6 5 5 6 7 8 10 12 12 11 12 16 17 17 18 20 20 19 20 20 21 21 21 21 21 21 21 20 20 18 17 17 16 15 17 14 13 13 12 11 10 9 10 9 10 10 11 9 5 6 4 6 10 11 13 9 7 5 7 7 7 6 5 5 7 12 16 15 16 15 16 16 17 18 18 18 18 18 18 17 16 15 15 15
11 6 5 5 5 8 8 10 11 13 12 12 16 18 18 18 19 19 19 19 20 20 20 20 22 21 21 22 21 20 20 20 19 17 16 17 15 14 14 13 11 11 11 10 10 9 10 10 11 10 7 9 9 8 10 12 13 10 7 5 5 5 8 7 5 5 5 6 6 9 12 13 15 17 18 18 18 18 17 17 17 16 15 15 15
11 7 6 7 6 8 8 9 11 12 13 12 15 17 18 19 19 20 19 20 20 19 20 21 21 22 21 20 21 22 22 21 20 19 18 17 15 16 15 14 12 11 10 9 9 11 11 11 9 11 10 6 9 11 9 8 9 12 15 10 6 4 5 8 8 4 5 6 7 11 10 9 12 10 14 16 17 18 17 17 16 15 15 15 15
11 8 8 8 8 7 8 8 10 11 12 13 14 17 18 18 18 19 19 20 20 19 20 21 22 21 20 20 21 21 21 20 20 19 18 17 15 13 14 14 14 12 11 10 10 11 11 11 12 11 9 12 6 5 9 9 8 5 8 13 15 12 9 6 8 10 6 8 8 6 8 11 11 12 15 14 15 17 17 15 16 14 15 15 15
13 11 9 9 9 9 8 8 10 10 12 13 13 15 17 19 19 20 20 21 20 19 18 19 18 20 20 19 19 19 20 21 24 21 20 19 16 15 13 13 12 13 11 10 11 11 11 11 10 10 10 10 11 13 12 13 16 18 14 8 8 8 8 7 5 5 8 10 7 7 7 7 7 7 6 6 8 12 12 13 12 16 15 15 16
16 14 12 10 10 10 10 10 9 11 12 12 15 22 22 18 19 18 18 19 20 19 18 18 18 19 19 18 18 23 23 23 22 23 23 23 23 19 17 15 15 14 14 13 12 12 13 13 13 13 13 13 13 15 17 16 12 9 11 11 12 11 9 6 4 3 5 8 10 9 7 6 8 7 7 7 6 9 7 8 8 9 14 17 17
18 18 17 15 12 10 10 10 11 11 12 13 20 21 25 26 21 18 18 18 19 19 19 19 18 18 18 19 16 19 21 21 21 23 22 23 22 20 20 21 21 19 17 16 15 15 15 14 13 14 15 17 17 17 17 16 13 16 15 14 13 13 13 14 13 7 6 9 9 9 8 7 8 9 8 7 8 8 8 8 13 16 17 18 18
17 16 17 16 14 12 11 10 11 12 12 17 23 23 26 27 24 19 17 16 17 18 18 19 18 18 18 17 15 13 14 18 18 18 20 22 22 21 21 19 21 23 22 19 19 16 16 15 15 16 15 16 17 16 13 12 13 12 11 10 13 16 15 13 11 14 12 13 11 10 8 6 6 7 8 8 9 8 9 12 19 17 20 20 19
16 17 18 16 15 13 12 12 12 12 13 18 24 24 26 28 28 23 15 17 17 18 18 18 18 18 17 16 15 14 14 22 19 18 16 16 20 22 19 19 19 20 21 21 19 17 16 17 18 17 18 16 17 16 17 20 19 19 15 12 11 12 13 14 13 10 10 14 11 10 11 9 9 9 8 7 9 8 9 15 20 20 20 21 20
16 17 18 17 15 14 13 13 12 12 13 18 25 25 27 29 28 24 16 18 18 19 19 18 16 16 18 18 17 15 14 17 17 18 16 15 11 11 12 11 12 16 18 20 21 19 17 13 14 17 16 15 18 19 19 19 21 19 18 17 15 14 15 18 13 10 10 14 15 12 8 9 8 8 9 7 8 8 7 12 21 21 21 21 21
16 16 16 16 14 14 14 12 12 12 14 21 26 26 28 30 29 25 17 17 15 16 17 18 17 16 17 17 18 16 16 16 15 19 18 15 15 13 12 12 11 13 14 15 15 15 13 10 11 12 15 15 16 17 16 13 18 20 23 23 22 19 11 7 8 8 9 9 7 9 11 10 7 8 8 8 8 8 6 12 19 20 21 21 20
15 15 15 14 14 14 13 12 12 14 14 22 26 26 29 30 31 21 16 17 16 15 16 16 17 16 16 16 16 16 16 16 19 24 20 16 16 18 17 14 11 11 13 15 17 17 16 16 14 15 14 14 14 11 13 12 10 5 9 10 11 10 11 10 8 7 11 11 10 11 6 9 9 9 7 6 7 7 7 7 15 21 20 20 20
16 15 14 13 12 12 13 12 13 13 14 20 25 26 29 32 27 18 15 14 15 15 15 16 16 15 15 17 16 15 16 16 22 26 26 22 16 18 17 16 14 13 12 11 16 19 19 20 19 19 17 16 14 15 20 20 14 10 9 10 10 11 11 11 8 8 11 13 11 9 6 9 9 9 7 7 8 7 7 8 8 15 20 20 20
16 14 12 12 11 11 12 13 12 13 14 19 24 26 30 32 27 19 15 14 14 14 13 13 13 12 15 22 19 15 16 17 23 27 27 23 19 21 19 18 16 15 14 11 10 11 15 17 16 16 17 17 16 21 23 23 21 15 15 16 16 14 14 14 15 14 10 12 13 11 8 9 11 8 8 5 5 3 6 5 8 9 15 14 18
16 13 11 11 10 9 10 11 15 17 15 16 22 26 31 31 26 16 15 13 14 14 13 12 12 12 13 16 22 20 18 19 27 27 28 24 18 19 20 19 19 19 16 14 14 12 9 9 8 7 7 14 13 14 18 27 25 20 16 15 13 14 16 15 12 9 6 7 10 12 10 8 13 10 11 8 4 3 5 6 7 8 7 7 8
Wind_Direction
222 194 202 216 206 201 181 182 175 161 155 151 166 145 149 152 159 163 148 147 140 135 137 140 133 129 127 118 121 122 128 117 119 106 116 113 118 131 133 121 95 78 206 187 164 156 152 152 151 147 147 148 145 146 143 144 142 145 144 142 138 138 135 133 133 130 129 130 133 128 130 130 127 127 130 125 121 121 120 111 105 106 108 108 102
221 214 206 207 198 186 181 179 180 166 161 158 162 157 156 162 164 187 176 153 149 149 144 150 136 127 124 107 122 124 144 133 121 105 103 107 114 125 119 103 107 129 205 168 161 159 160 155 151 148 147 147 152 150 145 147 148 146 144 144 139 137 135 133 135 134 131 135 133 132 132 130 128 128 124 125 125 123 120 115 116 109 107 107 103
221 214 213 209 191 181 179 183 182 173 173 176 182 165 158 166 162 171 175 174 149 142 144 146 135 131 130 128 135 132 140 133 135 136 125 129 127 128 129 133 117 91 49 185 166 161 156 154 149 148 148 145 150 151 149 147 148 146 144 140 136 139 139 136 136 137 138 137 134 133 132 131 130 128 129 129 126 123 118 115 116 114 112 110 108
219 211 212 211 191 203 174 180 182 176 179 171 172 175 166 170 169 161 169 172 162 149 153 154 150 153 148 151 137 133 142 140 144 162 148 137 126 122 120 116 127 113 140 186 155 174 157 147 146 146 147 151 151 147 150 151 148 148 147 144 141 140 140 141 141 140 139 138 138 139 143 143 138 129 127 123 119 112 111 114 117 116 112 108 103
237 219 206 211 176 198 184 181 182 187 172 172 170 162 169 168 177 161 157 165 161 154 145 151 156 158 156 153 149 155 157 146 141 141 148 137 130 128 126 125 140 142 174 228 160 153 156 142 145 148 149 151 152 149 149 148 149 147 146 146 144 144 143 144 143 141 141 141 138 137 134 129 125 122 119 118 117 119 120 118 117 114 111 107 102
220 229 207 225 198 180 187 186 169 164 168 164 165 161 163 164 167 153 159 165 171 167 154 159 161 157 156 155 164 165 165 152 146 145 144 144 138 127 125 125 131 137 184 215 164 164 160 147 150 151 150 149 152 150 151 151 148 151 149 147 144 147 147 146 144 143 142 139 138 135 134 132 127 126 126 124 123 122 120 119 117 116 114 105 97
263 235 227 224 229 219 196 184 154 159 177 177 170 155 157 156 152 158 163 167 167 167 167 163 162 166 163 155 164 162 160 155 147 143 143 147 139 128 129 124 129 134 161 144 127 123 128 139 148 147 146 150 148 148 150 154 154 156 149 147 149 149 148 146 144 143 142 141 138 136 137 134 130 129 131 130 126 123 120 117 113 112 108 104 103
228 265 247 214 210 209 183 163 157 168 176 170 167 165 163 161 163 160 162 172 168 169 171 162 164 164 157 159 160 163 149 145 149 149 142 141 139 130 123 129 130 131 143 134 137 135 139 144 143 143 144 148 148 150 154 155 159 155 149 149 151 151 149 146 144 141 137 137 138 137 136 136 134 133 132 130 127 124 120 116 112 110 106 101 96
231 225 236 228 200 213 193 165 156 161 174 170 180 180 166 166 161 170 171 167 166 164 167 164 165 163 155 159 164 157 148 151 151 150 130 126 127 108 112 111 117 125 132 138 143 144 142 139 141 141 139 142 143 150 155 158 158 160 157 149 150 150 147 145 144 143 141 140 138 137 135 134 134 134 134 131 128 124 120 117 113 106 103 102 97
222 224 233 233 212 222 183 164 160 162 170 168 186 186 177 170 164 169 173 169 164 166 165 163 164 161 161 159 163 157 149 141 139 144 141 124 131 124 130 121 132 135 141 137 144 142 132 129 130 132 136 138 144 148 159 162 161 158 155 153 152 151 150 148 145 143 143 141 140 138 137 136 135 134 134 133 130 125 120 117 114 111 105 99 95
223 213 212 241 230 232 194 159 165 165 168 176 174 183 188 175 169 167 172 175 173 170 163 161 161 162 164 160 159 146 139 132 139 141 148 134 130 138 147 139 135 131 132 130 139 137 130 129 129 132 139 136 144 158 159 160 157 156 157 158 156 153 150 145 143 143 141 141 140 139 137 135 133 133 132 132 129 127 123 121 119 118 113 108 101
231 212 212 219 214 197 184 155 170 169 172 170 174 183 187 169 171 158 163 172 177 171 161 157 154 153 147 128 110 122 132 136 141 146 154 157 140 140 142 145 140 129 139 142 139 135 132 133 131 134 138 139 143 152 151 161 163 162 161 156 153 149 145 143 142 142 141 141 140 139 136 133 133 134 135 135 135 132 132 129 128 123 121 109 133
232 219 223 202 219 217 185 175 171 181 183 179 174 175 178 181 167 167 166 162 171 174 161 153 140 123 112 102 93 71 85 123 138 140 153 154 148 157 144 145 151 141 146 146 141 138 138 138 138 138 141 140 144 161 160 161 164 165 159 155 151 149 146 145 144 143 144 144 142 139 137 136 137 138 140 141 141 141 139 140 137 136 126 133 98
240 218 217 215 205 204 192 187 175 183 186 178 177 179 177 175 165 165 173 166 169 167 156 147 155 154 144 129 87 67 43 74 102 120 137 146 152 165 158 154 155 153 145 146 141 137 138 139 139 142 147 147 145 158 162 162 168 166 160 157 155 152 151 150 149 149 149 148 146 143 141 141 142 144 147 149 148 148 148 149 149 147 148 140 163
244 229 221 216 213 205 194 190 186 181 187 185 176 181 182 175 171 169 166 173 163 173 167 173 158 155 141 129 156 136 107 67 18 53 101 130 144 160 166 163 159 152 159 146 142 134 134 138 141 144 143 138 131 144 156 163 166 170 164 161 159 157 156 155 154 154 154 152 149 147 145 146 148 150 151 153 153 154 157 159 162 163 176 176 196
247 226 222 222 217 213 198 192 192 179 183 183 175 172 174 178 174 173 167 164 167 182 181 178 162 150 163 176 159 152 141 207 148 23 347 86 165 167 160 162 158 151 159 146 142 132 138 138 145 145 140 133 121 124 124 119 117 122 154 166 161 160 159 158 157 157 157 155 152 151 152 153 155 156 158 160 164 167 171 176 178 191 188 186 182
269 244 219 225 219 214 205 197 190 185 181 183 178 178 175 176 175 172 178 173 168 172 188 187 181 178 147 131 128 178 195 155 127 54 32 104 28 181 152 156 163 161 155 146 140 143 138 141 148 145 140 137 125 117 114 120 116 132 127 121 154 161 161 160 160 161 161 159 157 158 160 162 165 167 169 171 176 179 182 190 194 190 189 199 193
282 262 234 222 222 214 212 205 189 184 183 183 178 165 174 179 180 178 179 176 168 164 177 205 188 195 191 169 162 164 157 149 154 162 10 27 20 344 128 149 158 159 154 146 145 143 142 148 145 144 142 140 133 130 128 123 129 143 138 144 145 127 160 165 163 165 164 162 162 163 165 167 170 173 174 181 183 188 183 189 196 179 178 179 186
305 278 245 224 224 215 210 208 193 185 181 180 178 174 173 180 176 181 183 169 170 169 177 182 181 213 207 60 114 105 140 151 173 110 130 158 136 175 122 119 136 152 149 157 148 143 149 145 145 142 141 140 140 138 139 143 148 142 147 151 149 147 141 151 175 174 169 169 170 171 173 175 177 187 194 187 178 167 167 177 164 168 164 163 145
317 304 266 227 215 214 207 200 204 184 176 180 179 173 172 178 180 184 181 174 176 178 178 171 178 192 180 113 111 130 150 154 136 162 163 156 171 351 33 116 112 116 146 146 147 143 143 148 146 144 142 142 143 144 144 149 146 143 153 161 156 155 151 151 148 154 171 186 181 179 180 182 181 188 187 189 178 171 175 167 147 137 132 134 134
321 309 301 262 224 210 208 200 195 194 184 187 178 174 174 175 181 186 186 184 183 180 175 178 181 180 163 150 132 135 146 131 131 124 135 144 151 172 153 95 96 82 83 100 101 120 141 146 150 148 145 144 145 147 148 151 151 158 163 167 164 157 153 152 151 162 176 188 189 178 177 179 177 182 179 179 173 169 161 155 156 157 152 144 143
320 310 304 288 238 216 211 204 198 192 186 186 180 177 176 180 181 184 185 180 188 187 182 179 181 180 168 152 144 138 132 122 149 148 131 160 163 178 162 157 154 152 54 112 117 103 110 127 136 144 144 144 144 152 158 160 159 159 167 169 168 166 162 162 166 171 186 212 212 246 210 179 183 184 182 179 174 175 172 171 170 165 161 155 149
315 314 306 304 275 230 212 203 200 196 186 186 181 179 174 170 179 185 185 181 182 186 183 175 179 175 167 174 164 164 169 171 169 162 152 143 126 157 165 164 157 146 201 70 101 109 107 127 137 149 150 150 149 153 157 162 162 163 161 170 170 169 169 170 171 173 183 200 212 214 237 213 188 189 190 187 186 183 183 179 179 167 161 158 151
311 310 311 312 298 250 217 211 201 188 185 188 183 182 176 169 173 183 186 184 181 180 177 174 177 178 177 179 175 165 156 152 155 160 161 156 150 157 161 133 101 83 113 92 51 83 123 135 134 141 144 146 155 153 150 149 163 159 161 170 168 169 173 173 174 174 182 191 199 201 204 195 173 177 186 188 190 186 185 177 168 164 157 153 148
316 307 306 309 308 295 239 210 208 202 193 194 188 183 181 167 171 182 183 181 180 178 177 178 177 178 182 180 171 161 162 152 146 153 151 143 146 147 177 155 148 133 146 151 138 88 69 133 133 129 128 144 150 146 145 151 154 166 161 172 170 174 176 177 174 177 184 190 191 187 182 169 161 162 169 181 186 181 174 167 159 165 158 152 153
300 295 302 302 298 297 278 231 205 201 188 192 186 182 177 170 169 176 185 184 177 178 180 177 179 179 173 170 176 168 155 156 153 151 150 148 156 161 160 143 140 148 125 169 151 139 233 127 135 141 143 142 141 145 155 153 148 168 163 163 178 176 177 175 176 178 182 186 182 180 171 164 162 165 169 177 177 171 164 159 162 158 155 157 157
280 293 295 297 300 296 296 277 227 202 190 189 188 178 177 179 179 180 179 179 180 180 180 176 178 175 177 179 173 165 161 167 159 163 158 160 158 159 153 137 108 134 155 157 154 206 157 149 172 162 171 156 154 162 166 160 158 171 164 162 170 178 172 172 170 170 172 173 171 167 163 160 162 162 165 167 166 160 163 162 160 158 159 162 160
274 282 288 293 294 295 290 280 251 213 193 191 191 188 180 182 184 183 184 180 179 180 180 180 180 177 176 173 167 174 169 169 167 166 165 158 156 158 161 151 148 156 159 158 173 204 152 151 151 187 171 162 165 167 176 151 153 171 170 156 158 171 169 161 159 157 155 153 151 151 152 152 151 151 151 149 147 150 155 157 150 137 120 111 106
261 271 285 286 290 291 290 285 260 221 197 193 192 188 183 185 185 184 184 179 178 180 175 180 182 174 169 172 176 171 171 168 170 171 168 163 163 166 166 165 161 150 164 173 189 179 173 174 157 188 176 165 161 165 164 162 159 163 177 152 154 160 163 156 153 149 145 143 140 137 134 130 124 120 117 115 113 109 103 102 105 109 115 117 120
235 267 277 285 287 288 291 283 274 245 200 191 195 193 185 187 185 185 185 175 179 181 179 177 178 175 169 169 168 172 171 171 176 176 176 174 168 172 176 178 172 167 172 173 186 188 173 182 176 149 172 168 154 152 166 152 161 165 171 149 154 157 157 152 149 144 142 139 136 132 129 126 123 121 119 118 117 116 115 116 119 121 124 130 137
214 251 269 280 284 286 286 287 273 255 221 193 192 194 189 190 187 186 185 179 178 181 183 177 176 175 169 169 173 172 172 174 174 177 179 176 173 175 181 185 190 179 172 175 167 190 165 176 164 152 157 162 149 143 140 136 163 169 158 144 148 148 150 148 146 142 139 137 134 130 128 128 126 125 123 122 123 123 123 126 128 131 136 143 145
198 235 259 271 281 285 288 289 281 262 238 201 189 194 192 189 186 185 185 181 180 181 181 180 174 178 173 172 175 175 175 174 177 176 177 178 172 175 181 181 182 181 173 175 179 167 169 174 145 149 153 150 153 143 132 129 157 169 146 126 135 140 138 142 143 141 139 137 134 132 130 129 129 128 128 127 129 130 131 134 139 144 148 149 147
197 215 247 263 274 281 286 284 281 271 245 213 192 187 189 190 188 187 184 181 181 182 178 180 177 178 177 176 178 178 172 177 184 177 175 178 172 177 180 182 185 187 178 179 175 141 81 124 140 153 154 146 150 154 137 144 140 121 115 130 140 139 133 135 137 139 138 136 134 133 133 132 131 131 131 132 133 136 139 143 146 148 149 149 146
202 202 230 257 263 275 280 282 283 275 259 225 192 185 189 190 187 189 184 182 182 180 179 180 177 179 181 180 180 180 179 181 183 187 181 178 175 174 182 183 187 186 182 169 171 151 152 137 131 136 149 159 143 163 151 150 142 127 131 140 136 130 134 131 131 139 137 135 135 135 134 133 133 132 133 134 134 136 141 143 143 146 149 149 146
218 211 213 242 264 268 274 278 278 278 269 244 202 186 188 190 188 185 184 184 183 181 182 183 180 177 181 185 185 181 178 182 187 190 186 185 177 178 183 184 184 183 181 178 158 158 153 160 153 152 161 165 160 163 160 146 136 134 133 139 134 126 126 133 132 136 141 137 137 137 137 137 135 137 137 137 139 140 140 142 144 149 152 150 151
238 224 197 227 258 264 274 279 278 272 270 250 219 193 186 187 188 186 184 185 185 185 184 183 182 179 181 186 187 182 181 184 187 189 191 186 182 182 183 183 180 181 179 175 166 149 156 148 172 165 170 159 149 146 139 134 135 134 133 119 115 124 127 128 135 138 145 140 139 138 139 140 139 139 139 140 141 142 141 141 142 142 143 144 143
240 234 221 206 250 262 271 280 284 281 268 260 232 202 188 187 186 187 186 185 186 186 186 183 182 183 184 185 185 183 182 184 188 190 190 188 185 182 182 178 179 175 169 175 160 150 151 154 150 155 153 142 139 147 150 142 138 123 116 130 135 130 121 122 123 138 142 139 138 139 141 142 142 142 142 143 142 142 143 145 147 146 144 142 142
257 233 232 235 243 262 268 276 280 281 276 267 245 212 190 186 187 186 186 185 186 186 186 185 185 185 186 186 182 182 184 186 189 189 187 186 182 183 180 177 176 169 169 172 155 156 150 151 150 148 166 151 147 155 162 150 144 136 124 110 103 118 130 129 135 139 139 140 141 138 139 139 141 142 142 143 145 145 146 148 149 148 147 147 147
268 253 233 242 244 253 263 274 278 280 280 271 256 223 195 186 186 187 185 185 185 186 186 186 188 187 188 187 183 184 186 187 186 186 185 184 184 184 180 177 175 169 169 167 156 154 152 147 155 158 154 158 156 152 161 154 146 151 148 141 137 153 145 144 141 142 137 129 131 138 140 138 138 137 143 145 148 150 150 150 150 150 151 151 149
285 259 252 249 252 250 258 265 274 279 278 273 262 231 199 187 187 187 184 185 185 186 188 187 185 187 188 187 186 187 188 186 185 185 181 183 183 184 183 177 175 169 169 164 156 156 154 155 158 164 161 151 144 128 131 132 135 143 176 163 162 165 165 158 156 152 151 138 140 138 133 132 135 139 144 148 153 154 152 151 153 153 154 153 152
282 282 269 261 258 261 259 259 270 275 273 265 258 235 205 190 187 188 186 185 185 187 186 187 189 187 186 189 190 187 186 186 184 182 184 181 179 183 185 177 173 168 168 162 160 158 158 157 159 159 157 157 154 151 160 165 173 180 177 161 146 144 140 142 156 163 156 146 142 138 148 151 139 146 147 149 160 155 153 153 156 158 159 157 157
280 282 281 266 258 260 265 265 265 270 271 267 254 241 213 192 187 187 187 185 185 184 183 186 188 186 187 188 190 186 182 182 182 184 185 184 186 183 178 176 174 171 172 165 165 166 163 167 166 163 162 168 168 169 170 186 178 132 140 155 155 156 140 134 132 179 168 152 150 157 164 160 148 149 156 159 164 156 157 156 168 163 163 162 162
273 271 268 270 263 257 257 261 266 265 268 268 260 242 221 194 185 186 186 186 186 184 185 184 187 187 190 188 184 181 181 181 183 185 185 186 186 186 185 180 176 174 172 170 173 170 172 173 171 171 174 172 177 177 181 169 163 167 172 169 159 154 163 162 173 171 195 167 160 154 167 177 161 163 169 168 167 168 166 169 167 166 166 166 167
271 268 263 259 263 261 257 254 258 263 266 268 264 250 219 200 186 183 185 185 184 186 186 187 187 185 187 185 184 177 181 181 183 186 186 185 184 184 182 184 186 181 179 176 172 175 176 174 176 181 174 179 177 178 174 163 166 170 171 162 163 170 172 178 168 179 185 170 158 162 166 174 168 164 174 173 172 176 174 167 169 169 171 171 172
267 262 259 255 255 257 253 254 256 260 267 268 265 249 220 202 189 181 183 182 182 187 187 187 186 183 181 179 183 182 182 180 184 185 183 185 184 181 177 177 186 189 186 183 184 183 177 176 177 180 184 176 176 186 177 176 172 169 165 169 173 179 182 180 182 170 156 171 156 161 168 177 176 173 175 172 171 174 172 172 170 174 175 176 177
262 259 256 253 250 251 252 251 255 258 261 267 261 246 216 201 190 183 180 182 183 186 186 183 183 182 179 179 180 183 179 177 184 183 181 178 179 177 175 175 181 190 190 188 180 178 179 184 180 186 190 179 184 184 187 175 166 167 167 179 178 177 182 191 183 164 157 167 171 159 150 174 183 168 177 172 164 172 172 168 170 176 178 180 181
260 253 252 248 245 247 250 249 252 255 259 260 257 241 214 198 190 185 181 181 182 186 186 181 180 179 181 183 179 179 178 177 181 180 177 176 169 173 178 180 182 184 190 189 186 184 182 185 187 195 191 190 190 187 180 176 175 176 178 178 177 177 160 81 61 112 148 175 154 144 171 178 176 172 179 166 161 164 165 169 171 176 180 181 183
259 252 249 242 239 241 245 250 251 257 258 256 252 235 207 196 188 187 182 180 181 183 184 184 182 178 177 179 177 176 178 176 179 176 176 171 174 170 175 180 182 189 197 195 188 184 182 184 187 192 193 191 185 170 168 172 173 121 78 72 84 108 133 155 145 150 161 186 184 171 144 170 183 179 164 151 147 160 166 171 181 180 182 183 185
260 251 245 239 239 240 245 247 251 255 259 255 247 225 203 194 187 186 181 180 182 182 182 182 183 177 175 178 178 180 177 177 178 178 176 169 175 176 177 178 181 184 197 192 194 191 186 188 190 190 184 185 160 149 166 171 167 154 135 132 151 151 156 160 157 157 179 177 198 192 144 157 180 175 151 159 166 162 171 175 180 183 184 186 187
253 244 241 240 235 235 239 248 249 255 256 250 239 217 198 192 186 183 178 177 180 182 180 181 179 176 178 177 179 179 178 178 175 180 179 173 177 180 179 179 179 188 194 187 181 192 189 188 192 185 177 177 163 161 167 170 167 162 163 171 171 167 177 174 174 185 172 182 189 180 149 179 163 167 136 127 123 175 175 171 175 186 187 188 190
271 265 242 238 237 235 239 247 254 252 249 245 230 211 195 188 184 181 177 173 176 179 176 178 181 179 175 178 180 180 182 179 178 180 179 178 180 180 180 177 183 190 192 181 177 174 177 181 191 160 169 176 167 166 172 173 173 173 180 178 169 175 176 184 177 143 132 205 200 182 176 152 161 175 147 128 173 198 168 171 171 177 182 180 186